Theta_e
310 314 311 311 307 312 306 308 303 308 315 320 324 325 324 322 324 327 336 342 343 343 346 345 348 349 352 359 365 362 361 367
308 311 312 310 314 305 306 300 298 306 310 311 316 318 320 318 319 324 332 339 342 341 343 347 348 349 352 356 361 361 363 362
306 306 306 308 307 309 309 307 301 301 308 320 318 316 318 317 318 321 325 330 336 340 341 347 345 345 351 354 358 360 361 363
302 307 308 309 308 309 303 303 306 305 303 318 320 320 319 317 317 319 322 327 332 334 334 329 332 338 350 343 354 355 359 361
299 303 306 305 308 309 309 309 305 302 304 319 318 319 319 317 317 318 319 321 325 328 329 330 326 329 340 345 343 345 359 358
296 300 304 302 303 306 307 303 305 306 306 312 315 316 316 317 319 320 320 321 321 322 325 326 327 328 327 334 337 344 351 351
302 301 302 302 302 301 303 305 303 310 308 313 317 317 318 319 319 320 320 320 321 321 323 326 330 329 328 327 329 335 347 353
300 300 300 299 301 301 302 304 305 312 307 316 318 321 320 319 318 319 319 319 320 322 323 325 329 330 331 327 329 329 332 337
296 301 299 296 300 302 303 304 306 307 312 315 314 316 317 318 318 317 318 319 319 319 320 321 325 328 329 331 329 330 329 327
296 299 289 300 306 304 303 305 309 315 314 316 315 315 316 318 317 315 315 316 317 318 319 320 321 322 326 331 333 333 330 329
294 294 297 299 302 302 302 303 310 313 313 314 314 315 314 316 316 315 315 316 316 317 316 319 320 321 321 323 329 332 332 332
297 291 290 300 304 307 307 297 310 314 314 313 314 308 311 315 313 312 313 313 314 314 316 317 318 318 319 320 321 325 329 332
295 294 298 305 307 307 295 300 310 312 312 312 309 311 312 312 311 311 311 311 312 314 313 315 317 317 317 319 320 323 325 325
297 294 291 307 305 298 308 312 311 311 312 310 310 309 309 309 309 309 310 310 311 312 312 314 316 316 316 317 321 322 323 323
300 299 308 308 308 312 311 310 310 310 308 309 307 307 307 309 309 309 309 310 311 311 311 313 315 316 314 317 319 319 319 320
301 303 305 306 308 311 310 310 308 308 308 307 306 307 308 309 309 309 309 309 311 310 310 311 314 315 316 317 318 318 317 318
301 304 305 306 308 309 308 308 307 307 307 306 306 306 308 308 309 309 309 310 311 310 309 310 312 313 314 315 316 315 316 316
299 305 305 306 309 310 309 307 307 306 306 307 306 306 307 308 310 309 309 310 309 310 310 310 310 310 312 314 315 314 314 314
305 309 307 309 309 310 309 309 309 307 307 306 308 307 307 307 309 308 309 309 309 308 307 307 307 307 308 312 314 314 313 315
Wind_Speed
4 10 9 18 22 23 12 15 15 13 16 13 15 18 14 9 9 8 10 12 13 8 12 12 19 18 17 15 15 15 16 12
12 10 13 14 12 19 9 16 16 18 19 16 14 11 8 11 11 10 11 16 12 7 4 11 7 16 18 16 15 14 14 13
6 14 16 12 11 12 15 16 12 12 11 15 15 11 9 10 10 11 13 13 12 11 13 14 10 18 19 16 14 11 9 11
15 7 5 13 10 14 11 16 14 11 5 9 12 13 12 10 10 11 12 13 13 13 16 14 13 13 13 18 10 14 13 10
6 8 5 12 11 12 15 16 12 17 9 9 13 12 13 12 11 11 12 14 14 15 16 16 13 15 15 13 12 13 7 15
7 9 7 17 7 12 15 13 11 11 20 16 15 14 12 12 10 11 12 12 13 14 14 12 11 13 10 13 12 14 13 8
5 3 8 3 6 7 14 16 17 17 16 17 16 15 14 12 12 10 12 13 13 13 12 11 8 10 8 10 13 13 14 11
10 6 7 8 10 8 9 8 6 18 16 10 11 14 13 12 10 11 11 12 12 13 12 13 12 12 12 12 12 9 12 13
13 11 8 14 14 12 11 10 11 14 13 17 14 12 11 11 10 10 10 10 10 11 11 11 12 12 12 10 8 9 10 9
12 7 13 2 9 7 12 8 3 15 22 20 16 13 10 8 9 8 7 8 8 9 9 10 10 11 10 9 8 5 6 6
11 9 4 7 5 5 8 8 6 15 13 17 15 14 11 8 5 6 5 6 7 8 8 7 8 9 9 9 9 8 10 10
5 12 12 18 10 3 3 9 10 13 17 17 14 13 10 10 6 6 6 7 8 8 8 8 9 10 10 10 9 10 10 11
9 7 2 8 9 4 9 6 15 12 12 11 7 10 12 8 7 5 6 6 7 8 8 8 9 9 9 9 9 10 10 11
8 13 12 11 8 5 8 5 7 7 10 8 11 8 8 6 4 4 5 5 6 6 7 9 10 9 9 9 10 11 12 12
5 5 6 5 5 8 4 8 6 8 7 7 7 5 4 3 2 4 4 6 6 7 8 8 9 9 11 11 11 12 12 13
7 8 5 3 3 5 5 7 5 5 7 5 4 4 2 1 2 4 5 6 7 7 9 9 9 9 10 12 12 13 14 14
11 7 1 6 8 8 8 4 6 5 6 5 4 4 2 2 2 4 5 6 7 8 8 10 12 12 13 13 14 15 14 14
7 8 6 8 13 13 11 9 8 8 8 6 5 5 3 4 3 4 5 7 7 8 9 11 13 14 14 14 14 14 15 13
8 8 6 4 2 13 12 11 9 8 8 7 7 5 3 4 3 4 7 7 8 9 10 11 12 13 14 16 16 16 16 15
Wind_Direction
269 243 258 193 236 237 273 218 216 119 96 122 130 109 86 55 33 14 343 302 178 203 254 235 191 184 185 179 181 196 199 197
170 224 247 266 242 243 240 258 206 134 159 147 109 81 75 46 32 23 17 5 129 196 314 252 223 183 187 188 187 197 205 197
182 206 211 211 241 255 257 256 221 152 106 108 123 104 88 63 44 37 34 29 44 51 36 13 40 352 176 185 188 190 227 203
195 65 321 303 268 237 245 231 272 297 100 81 123 118 102 82 61 54 46 45 43 40 40 21 28 1 23 24 193 202 183 217
190 187 208 244 230 273 265 271 268 256 128 146 125 111 100 93 84 74 64 54 56 49 45 40 33 20 352 15 8 353 257 191
18 4 221 205 227 240 270 247 251 278 135 159 145 128 115 100 84 86 83 79 66 62 56 53 40 36 3 8 15 353 338 358
108 3 336 25 204 218 247 261 273 115 133 162 148 139 126 122 123 103 86 78 74 71 70 62 69 72 55 29 21 11 349 352
262 189 257 250 224 247 257 269 282 102 127 159 139 138 136 133 121 101 88 74 69 62 55 65 47 43 54 55 35 14 15 2
248 217 268 248 241 227 240 223 247 166 152 157 157 147 135 127 114 102 89 75 64 64 55 36 48 37 28 65 53 45 39 9
261 153 237 50 352 233 228 172 232 69 142 160 155 140 127 115 108 96 74 61 49 44 45 30 30 35 24 11 43 62 80 48
258 213 213 160 177 194 210 173 225 131 158 142 151 149 138 119 93 84 64 51 29 27 18 13 11 19 12 0 7 6 17 17
219 261 249 60 124 150 214 250 179 158 167 160 170 192 156 136 112 81 49 32 21 358 353 10 4 358 353 346 349 357 360 354
242 259 122 96 102 124 207 61 161 164 164 162 180 51 103 111 101 80 53 31 360 2 356 4 352 347 332 332 333 342 335 332
243 250 235 130 144 219 44 98 120 130 117 154 101 124 117 109 85 52 34 8 5 355 354 343 339 335 329 323 330 325 320 316
278 42 81 144 46 97 121 117 121 121 134 142 159 139 103 84 55 27 360 350 343 345 333 323 334 331 322 325 320 311 306 304
279 226 183 180 105 167 180 151 149 158 148 174 173 146 161 208 349 346 341 336 337 330 333 327 328 317 309 310 312 306 299 294
254 263 206 248 182 193 186 175 174 165 182 188 185 198 211 270 310 319 332 325 333 325 324 322 327 325 320 316 311 304 298 294
264 352 232 243 187 190 192 199 201 200 192 201 228 229 213 259 311 315 341 329 310 323 325 322 327 316 313 309 300 292 289 285
268 340 280 296 178 202 198 213 205 219 218 205 198 228 245 276 287 14 274 338 327 330 319 311 307 320 309 305 300 289 282 281